Time,TemperatureF,DewpointF,PressureIn,WindDirection,WindDirectionDegrees,WindSpeedMPH,WindSpeedGustMPH,Humidity,HourlyPrecipIn,Conditions,Clouds,dailyrainin,SoftwareType,DateUTC
2013-03-19 00:02:00,33.4,27.0,31.90,South,170,0.0,0.0,77,0.00,NA,NA,-99.99,wxupload 3.4,2013-03-19 04:02:00,
2013-03-19 00:04:00,33.4,27.0,31.90,South,170,0.0,0.0,77,0.00,NA,NA,-99.99,wxupload 3.4,2013-03-19 04:04:00,
2013-03-19 00:08:00,33.4,27.0,31.90,South,170,0.0,0.0,77,0.00,NA,NA,-99.99,wxupload 3.4,2013-03-19 04:08:00,
2013-03-19 00:13:00,33.4,27.0,31.90,South,170,0.0,0.0,77,0.00,NA,NA,-99.99,wxupload 3.4,2013-03-19 04:13:00,
2013-03-19 00:17:00,33.3,26.8,31.90,South,170,0.0,0.0,77,0.00,NA,NA,-99.99,wxupload 3.4,2013-03-19 04:17:00,
2013-03-19 00:23:00,33.3,26.8,31.90,South,170,0.0,0.0,77,0.00,NA,NA,-99.99,wxupload 3.4,2013-03-19 04:23:00,
2013-03-19 00:29:00,33.3,26.8,31.90,South,170,0.0,0.0,77,0.00,NA,NA,-99.99,wxupload 3.4,2013-03-19 04:29:00,
2013-03-19 00:38:00,33.3,26.8,31.87,South,170,0.0,0.0,77,0.00,NA,NA,-99.99,wxupload 3.4,2013-03-19 04:38:00,
2013-03-19 00:43:00,33.3,26.8,31.87,South,170,0.0,0.0,77,0.00,NA,NA,-99.99,wxupload 3.4,2013-03-19 04:43:00,
2013-03-19 00:49:00,33.3,26.8,31.87,South,170,0.0,0.0,77,0.00,NA,NA,-99.99,wxupload 3.4,2013-03-19 04:49:00,
2013-03-19 00:55:00,33.3,26.8,31.87,South,170,0.0,0.0,77,0.00,NA,NA,-99.99,wxupload 3.4,2013-03-19 04:55:00,
2013-03-19 01:01:00,33.4,27.0,31.87,South,170,0.0,0.0,77,0.00,NA,NA,-99.99,wxupload 3.4,2013-03-19 05:01:00,
2013-03-19 01:08:00,33.4,27.0,31.87,South,170,0.0,0.0,77,0.00,NA,NA,-99.99,wxupload 3.4,2013-03-19 05:08:00,
2013-03-19 01:13:00,33.4,27.0,31.87,South,170,0.0,0.0,77,0.00,NA,NA,-99.99,wxupload 3.4,2013-03-19 05:13:00,
2013-03-19 01:19:00,33.4,27.0,31.87,South,170,0.0,0.0,77,0.00,NA,NA,-99.99,wxupload 3.4,2013-03-19 05:19:00,
2013-03-19 01:25:00,33.3,26.8,31.87,South,170,0.0,0.0,77,0.00,NA,NA,-99.99,wxupload 3.4,2013-03-19 05:25:00,
2013-03-19 01:32:00,33.3,26.8,31.87,South,170,0.0,0.0,77,0.00,NA,NA,-99.99,wxupload 3.4,2013-03-19 05:32:00,
2013-03-19 01:38:00,33.3,26.8,31.87,South,170,0.0,0.0,77,0.00,NA,NA,-99.99,wxupload 3.4,2013-03-19 05:38:00,
2013-03-19 01:43:00,33.3,27.1,31.87,South,170,0.0,0.0,78,0.00,NA,NA,-99.99,wxupload 3.4,2013-03-19 05:43:00,
2013-03-19 01:49:00,33.3,27.1,31.87,South,170,0.0,0.0,78,0.00,NA,NA,-99.99,wxupload 3.4,2013-03-19 05:49:00,
2013-03-19 01:55:00,33.3,27.1,31.87,South,170,0.0,0.0,78,0.00,NA,NA,-99.99,wxupload 3.4,2013-03-19 05:55:00,
2013-03-19 02:01:00,33.3,27.1,31.87,South,170,0.0,0.0,78,0.00,NA,NA,-99.99,wxupload 3.4,2013-03-19 06:01:00,
2013-03-19 02:08:00,33.4,27.3,31.84,South,170,0.0,0.0,78,0.00,NA,NA,-99.99,wxupload 3.4,2013-03-19 06:08:00,
2013-03-19 02:13:00,33.4,27.3,31.84,South,170,0.0,0.0,78,0.00,NA,NA,-99.99,wxupload 3.4,2013-03-19 06:13:00,
2013-03-19 02:19:00,33.4,27.3,31.84,South,170,0.0,0.0,78,0.00,NA,NA,-99.99,wxupload 3.4,2013-03-19 06:19:00,
2013-03-19 02:25:00,33.4,27.3,31.84,South,170,0.0,0.0,78,0.00,NA,NA,-99.99,wxupload 3.4,2013-03-19 06:25:00,
2013-03-19 02:31:00,33.4,27.3,31.84,South,170,0.0,0.0,78,0.00,NA,NA,-99.99,wxupload 3.4,2013-03-19 06:31:00,
2013-03-19 02:38:00,33.4,27.3,31.84,South,170,0.0,0.0,78,0.00,NA,NA,-99.99,wxupload 3.4,2013-03-19 06:38:00,
2013-03-19 02:43:00,33.4,27.3,31.84,South,170,0.0,0.0,78,0.00,NA,NA,-99.99,wxupload 3.4,2013-03-19 06:43:00,
2013-03-19 02:49:00,33.4,27.3,31.84,South,170,0.0,0.0,78,0.00,NA,NA,-99.99,wxupload 3.4,2013-03-19 06:49:00,
2013-03-19 02:55:00,33.4,27.3,31.84,South,170,0.0,0.0,78,0.00,NA,NA,-99.99,wxupload 3.4,2013-03-19 06:55:00,
2013-03-19 03:01:00,33.4,27.6,31.84,South,170,0.0,0.0,79,0.00,NA,NA,-99.99,wxupload 3.4,2013-03-19 07:01:00,
2013-03-19 03:08:00,33.4,27.6,31.81,South,170,0.0,0.0,79,0.00,NA,NA,-99.99,wxupload 3.4,2013-03-19 07:08:00,
2013-03-19 03:14:00,33.4,27.6,31.81,South,170,0.0,0.0,79,0.00,NA,NA,-99.99,wxupload 3.4,2013-03-19 07:14:00,
2013-03-19 03:19:00,33.3,27.5,31.81,South,170,0.0,0.0,79,0.00,NA,NA,-99.99,wxupload 3.4,2013-03-19 07:19:00,
2013-03-19 03:25:00,33.3,27.5,31.81,South,170,0.0,0.0,79,0.00,NA,NA,-99.99,wxupload 3.4,2013-03-19 07:25:00,
2013-03-19 03:31:00,33.3,27.5,31.81,South,171,0.0,0.0,79,0.00,NA,NA,-99.99,wxupload 3.4,2013-03-19 07:31:00,
2013-03-19 03:38:00,33.3,27.5,31.81,South,170,0.0,0.0,79,0.00,NA,NA,-99.99,wxupload 3.4,2013-03-19 07:38:00,
2013-03-19 03:44:00,33.3,27.5,31.81,South,170,0.0,0.0,79,0.00,NA,NA,-99.99,wxupload 3.4,2013-03-19 07:44:00,
2013-03-19 03:49:00,33.3,27.5,31.81,South,170,0.0,0.0,79,0.00,NA,NA,-99.99,wxupload 3.4,2013-03-19 07:49:00,
2013-03-19 03:55:00,33.3,27.5,31.81,South,170,0.0,0.0,79,0.00,NA,NA,-99.99,wxupload 3.4,2013-03-19 07:55:00,
2013-03-19 04:01:00,33.3,27.5,31.81,South,170,0.0,0.0,79,0.00,NA,NA,-99.99,wxupload 3.4,2013-03-19 08:01:00,
2013-03-19 04:08:00,33.3,27.5,31.81,South,170,0.0,0.0,79,0.00,NA,NA,-99.99,wxupload 3.4,2013-03-19 08:08:00,
2013-03-19 04:14:00,33.3,27.5,31.81,South,170,0.0,0.0,79,0.00,NA,NA,-99.99,wxupload 3.4,2013-03-19 08:14:00,
2013-03-19 04:19:00,33.3,27.5,31.78,South,171,0.0,0.0,79,0.00,NA,NA,-99.99,wxupload 3.4,2013-03-19 08:19:00,
2013-03-19 04:25:00,33.3,27.5,31.78,South,170,0.0,0.0,79,0.00,NA,NA,-99.99,wxupload 3.4,2013-03-19 08:25:00,
2013-03-19 04:31:00,33.1,27.3,31.78,South,170,0.0,0.0,79,0.00,NA,NA,-99.99,wxupload 3.4,2013-03-19 08:31:00,
2013-03-19 04:38:00,33.1,27.3,31.81,South,170,0.0,0.0,79,0.00,NA,NA,-99.99,wxupload 3.4,2013-03-19 08:38:00,
2013-03-19 04:44:00,33.1,27.3,31.81,South,170,0.0,0.0,79,0.00,NA,NA,-99.99,wxupload 3.4,2013-03-19 08:44:00,
2013-03-19 04:49:00,33.1,27.3,31.78,South,170,0.0,0.0,79,0.00,NA,NA,-99.99,wxupload 3.4,2013-03-19 08:49:00,
2013-03-19 04:55:00,32.9,27.1,31.78,South,170,0.0,0.0,79,0.00,NA,NA,-99.99,wxupload 3.4,2013-03-19 08:55:00,
2013-03-19 05:01:00,33.1,27.6,31.78,South,170,0.0,0.0,80,0.00,NA,NA,-99.99,wxupload 3.4,2013-03-19 09:01:00,
2013-03-19 05:08:00,33.1,27.6,31.78,South,170,0.0,0.0,80,0.00,NA,NA,-99.99,wxupload 3.4,2013-03-19 09:08:00,
2013-03-19 05:14:00,33.1,27.6,31.78,South,170,0.0,0.0,80,0.00,NA,NA,-99.99,wxupload 3.4,2013-03-19 09:14:00,
2013-03-19 05:19:00,32.9,27.4,31.78,South,170,0.0,0.0,80,0.00,NA,NA,-99.99,wxupload 3.4,2013-03-19 09:19:00,
2013-03-19 05:25:00,32.9,27.4,31.78,South,170,0.0,0.0,80,0.00,NA,NA,-99.99,wxupload 3.4,2013-03-19 09:25:00,
2013-03-19 05:31:00,33.1,27.6,31.78,South,170,0.0,0.0,80,0.00,NA,NA,-99.99,wxupload 3.4,2013-03-19 09:31:00,
2013-03-19 05:38:00,32.9,27.4,31.78,South,170,0.0,0.0,80,0.00,NA,NA,-99.99,wxupload 3.4,2013-03-19 09:38:00,
2013-03-19 05:44:00,32.9,27.4,31.78,South,170,0.0,0.0,80,0.00,NA,NA,-99.99,wxupload 3.4,2013-03-19 09:44:00,
2013-03-19 05:49:00,33.1,27.6,31.78,South,170,0.0,0.0,80,0.00,NA,NA,-99.99,wxupload 3.4,2013-03-19 09:49:00,
2013-03-19 05:55:00,33.1,27.6,31.78,South,170,0.0,0.0,80,0.00,NA,NA,-99.99,wxupload 3.4,2013-03-19 09:55:00,
2013-03-19 06:01:00,33.1,27.6,31.78,South,170,0.0,0.0,80,0.00,NA,NA,-99.99,wxupload 3.4,2013-03-19 10:01:00,
2013-03-19 06:08:00,33.1,27.6,31.78,South,170,0.0,0.0,80,0.00,NA,NA,-99.99,wxupload 3.4,2013-03-19 10:08:00,
2013-03-19 06:14:00,33.1,27.6,31.78,South,170,0.0,0.0,80,0.00,NA,NA,-99.99,wxupload 3.4,2013-03-19 10:14:00,
2013-03-19 06:19:00,33.1,27.6,31.81,South,170,0.0,0.0,80,0.00,NA,NA,-99.99,wxupload 3.4,2013-03-19 10:19:00,
2013-03-19 06:25:00,33.1,27.9,31.81,South,170,0.0,0.0,81,0.00,NA,NA,-99.99,wxupload 3.4,2013-03-19 10:25:00,
2013-03-19 06:31:00,33.1,27.9,31.81,South,170,0.0,0.0,81,0.00,NA,NA,-99.99,wxupload 3.4,2013-03-19 10:31:00,
2013-03-19 06:38:00,33.1,27.6,31.81,South,170,0.0,0.0,80,0.00,NA,NA,-99.99,wxupload 3.4,2013-03-19 10:38:00,
2013-03-19 06:44:00,33.1,27.9,31.81,North,8,0.0,0.0,81,0.00,NA,NA,-99.99,wxupload 3.4,2013-03-19 10:44:00,
2013-03-19 06:49:00,33.1,27.9,31.84,North,8,0.0,0.0,81,0.00,NA,NA,-99.99,wxupload 3.4,2013-03-19 10:49:00,
2013-03-19 06:55:00,33.3,28.1,31.84,East,97,0.0,0.0,81,0.00,NA,NA,-99.99,wxupload 3.4,2013-03-19 10:55:00,
2013-03-19 07:02:00,33.3,28.4,31.84,ESE,103,0.0,0.0,82,0.00,NA,NA,-99.99,wxupload 3.4,2013-03-19 11:02:00,
2013-03-19 07:08:00,33.3,28.4,31.84,ESE,118,0.0,0.0,82,0.00,NA,NA,-99.99,wxupload 3.4,2013-03-19 11:08:00,
2013-03-19 07:14:00,33.3,28.4,31.84,ESE,118,0.0,0.0,82,0.00,NA,NA,-99.99,wxupload 3.4,2013-03-19 11:14:00,
2013-03-19 07:19:00,33.4,28.5,31.81,ESE,118,0.0,0.0,82,0.00,NA,NA,-99.99,wxupload 3.4,2013-03-19 11:19:00,
2013-03-19 07:25:00,33.4,28.5,31.81,ESE,106,0.0,0.0,82,0.00,NA,NA,-99.99,wxupload 3.4,2013-03-19 11:25:00,
2013-03-19 07:32:00,33.6,28.7,31.81,East,97,0.0,0.0,82,0.00,NA,NA,-99.99,wxupload 3.4,2013-03-19 11:32:00,
2013-03-19 07:38:00,33.6,28.7,31.81,East,98,0.0,0.0,82,0.00,NA,NA,-99.99,wxupload 3.4,2013-03-19 11:38:00,
2013-03-19 07:44:00,33.6,28.7,31.81,SSE,153,0.0,0.0,82,0.00,NA,NA,-99.99,wxupload 3.4,2013-03-19 11:44:00,
2013-03-19 07:49:00,33.8,28.9,31.84,SE,126,0.0,3.0,82,0.00,NA,NA,-99.99,wxupload 3.4,2013-03-19 11:49:00,
2013-03-19 07:55:00,33.8,28.9,31.84,ESE,120,0.0,0.0,82,0.00,NA,NA,-99.99,wxupload 3.4,2013-03-19 11:55:00,
2013-03-19 08:01:00,33.8,28.9,31.84,ESE,119,0.0,0.0,82,0.00,NA,NA,-99.99,wxupload 3.4,2013-03-19 12:01:00,
2013-03-19 08:08:00,33.8,28.9,31.84,East,93,0.0,0.0,82,0.00,NA,NA,-99.99,wxupload 3.4,2013-03-19 12:08:00,
2013-03-19 08:14:00,34.0,29.1,31.84,ESE,123,0.0,0.0,82,0.00,NA,NA,-99.99,wxupload 3.4,2013-03-19 12:14:00,
2013-03-19 08:19:00,34.2,29.2,31.84,ESE,115,0.0,0.0,82,0.00,NA,NA,-99.99,wxupload 3.4,2013-03-19 12:19:00,
2013-03-19 08:25:00,34.9,30.2,31.84,ENE,78,0.0,0.0,83,0.00,NA,NA,-99.99,wxupload 3.4,2013-03-19 12:25:00,
2013-03-19 08:32:00,35.6,31.3,31.84,NW,315,0.0,0.0,84,0.00,NA,NA,-99.99,wxupload 3.4,2013-03-19 12:32:00,
2013-03-19 08:38:00,36.1,32.1,31.84,NW,320,2.0,3.0,85,0.00,NA,NA,-99.99,wxupload 3.4,2013-03-19 12:38:00,
2013-03-19 08:44:00,36.3,32.3,31.84,NNW,335,0.0,2.0,85,0.00,NA,NA,-99.99,wxupload 3.4,2013-03-19 12:44:00,
2013-03-19 08:49:00,36.9,33.1,31.84,NNW,335,0.0,0.0,86,0.00,NA,NA,-99.99,wxupload 3.4,2013-03-19 12:49:00,
2013-03-19 08:55:00,37.4,33.3,31.84,NNW,335,0.0,0.0,85,0.00,NA,NA,-99.99,wxupload 3.4,2013-03-19 12:55:00,
2013-03-19 09:01:00,37.9,33.8,31.84,NNW,335,0.0,0.0,85,0.00,NA,NA,-99.99,wxupload 3.4,2013-03-19 13:01:00,
2013-03-19 09:08:00,38.5,34.7,31.84,SSW,193,0.0,0.0,86,0.00,NA,NA,-99.99,wxupload 3.4,2013-03-19 13:08:00,
2013-03-19 09:14:00,38.7,34.6,31.84,SSW,210,0.0,0.0,85,0.00,NA,NA,-99.99,wxupload 3.4,2013-03-19 13:14:00,
2013-03-19 09:19:00,38.8,34.7,31.84,SSW,209,0.0,0.0,85,0.00,NA,NA,-99.99,wxupload 3.4,2013-03-19 13:19:00,
2013-03-19 09:25:00,39.2,34.8,31.84,SW,215,0.0,0.0,84,0.00,NA,NA,-99.99,wxupload 3.4,2013-03-19 13:25:00,
2013-03-19 09:32:00,39.7,35.6,31.84,SW,215,0.0,0.0,85,0.00,NA,NA,-99.99,wxupload 3.4,2013-03-19 13:32:00,
2013-03-19 09:38:00,39.9,35.5,31.84,SW,215,0.0,0.0,84,0.00,NA,NA,-99.99,wxupload 3.4,2013-03-19 13:38:00,
2013-03-19 09:44:00,40.3,35.8,31.84,West,278,0.0,0.0,84,0.00,NA,NA,-99.99,wxupload 3.4,2013-03-19 13:44:00,
2013-03-19 09:49:00,40.5,36.3,31.84,West,278,0.0,0.0,85,0.00,NA,NA,-99.99,wxupload 3.4,2013-03-19 13:49:00,
2013-03-19 09:55:00,40.6,36.5,31.84,SE,142,0.0,0.0,85,0.00,NA,NA,-99.99,wxupload 3.4,2013-03-19 13:55:00,
2013-03-19 10:02:00,40.8,36.4,31.84,ESE,113,0.0,0.0,84,0.00,NA,NA,-99.99,wxupload 3.4,2013-03-19 14:02:00,
2013-03-19 10:08:00,40.6,36.2,31.84,South,175,0.0,0.0,84,0.00,NA,NA,-99.99,wxupload 3.4,2013-03-19 14:08:00,
2013-03-19 10:13:00,40.6,36.2,31.84,South,181,0.0,0.0,84,0.00,NA,NA,-99.99,wxupload 3.4,2013-03-19 14:13:00,
2013-03-19 10:19:00,40.3,35.5,31.84,ESE,116,0.0,0.0,83,0.00,NA,NA,-99.99,wxupload 3.4,2013-03-19 14:19:00,
2013-03-19 10:25:00,40.1,35.4,31.84,SSE,163,0.0,0.0,83,0.00,NA,NA,-99.99,wxupload 3.4,2013-03-19 14:25:00,
2013-03-19 10:32:00,40.1,35.7,31.84,NNW,337,0.0,0.0,84,0.00,NA,NA,-99.99,wxupload 3.4,2013-03-19 14:32:00,
2013-03-19 10:38:00,40.5,36.0,31.81,North,2,0.0,0.0,84,0.00,NA,NA,-99.99,wxupload 3.4,2013-03-19 14:38:00,
2013-03-19 10:43:00,40.8,36.1,31.81,SSW,209,0.0,0.0,83,0.00,NA,NA,-99.99,wxupload 3.4,2013-03-19 14:43:00,
2013-03-19 10:49:00,41.4,35.7,31.81,West,267,0.0,0.0,80,0.00,NA,NA,-99.99,wxupload 3.4,2013-03-19 14:49:00,
2013-03-19 10:56:00,41.9,35.6,31.81,SSW,210,0.0,2.0,78,0.00,NA,NA,-99.99,wxupload 3.4,2013-03-19 14:56:00,
2013-03-19 11:02:00,42.3,35.3,31.81,NW,325,0.0,0.0,76,0.00,NA,NA,-99.99,wxupload 3.4,2013-03-19 15:02:00,
2013-03-19 11:08:00,42.8,34.1,31.81,North,8,0.0,0.0,71,0.00,NA,NA,-99.99,wxupload 3.4,2013-03-19 15:08:00,
2013-03-19 11:14:00,42.8,33.7,31.81,NE,41,0.0,0.0,70,0.00,NA,NA,-99.99,wxupload 3.4,2013-03-19 15:14:00,
2013-03-19 11:20:00,43.5,31.8,31.81,SSE,166,0.0,0.0,63,0.00,NA,NA,-99.99,wxupload 3.4,2013-03-19 15:20:00,
2013-03-19 11:25:00,44.1,26.6,31.81,North,357,0.0,0.0,50,0.00,NA,NA,-99.99,wxupload 3.4,2013-03-19 15:25:00,
2013-03-19 11:32:00,43.5,27.6,31.81,SW,235,0.0,0.0,53,0.00,NA,NA,-99.99,wxupload 3.4,2013-03-19 15:32:00,
2013-03-19 11:38:00,44.6,24.6,31.81,SW,218,0.0,0.0,45,0.00,NA,NA,-99.99,wxupload 3.4,2013-03-19 15:38:00,
2013-03-19 11:44:00,45.1,24.6,31.81,SSW,201,0.0,0.0,44,0.00,NA,NA,-99.99,wxupload 3.4,2013-03-19 15:44:00,
2013-03-19 11:50:00,45.9,25.2,31.81,NNE,17,0.0,2.0,44,0.00,NA,NA,-99.99,wxupload 3.4,2013-03-19 15:50:00,
2013-03-19 11:55:00,46.2,23.9,31.81,NW,305,0.0,3.0,41,0.00,NA,NA,-99.99,wxupload 3.4,2013-03-19 15:55:00,
2013-03-19 12:04:00,46.9,21.4,31.81,West,275,0.0,5.0,36,0.00,NA,NA,-99.99,wxupload 3.4,2013-03-19 16:04:00,
2013-03-19 12:10:00,47.1,21.6,31.81,NW,319,5.0,8.0,36,0.00,NA,NA,-99.99,wxupload 3.4,2013-03-19 16:10:00,
2013-03-19 12:15:00,47.1,17.3,31.81,South,175,0.0,4.0,30,0.00,NA,NA,-99.99,wxupload 3.4,2013-03-19 16:15:00,
2013-03-19 12:21:00,48.2,19.0,31.81,West,263,0.0,4.0,31,0.00,NA,NA,-99.99,wxupload 3.4,2013-03-19 16:21:00,
2013-03-19 12:28:00,48.6,22.2,31.81,WNW,293,0.0,4.0,35,0.00,NA,NA,-99.99,wxupload 3.4,2013-03-19 16:28:00,
2013-03-19 12:34:00,48.9,20.4,31.81,West,270,0.0,3.0,32,0.00,NA,NA,-99.99,wxupload 3.4,2013-03-19 16:34:00,
2013-03-19 12:40:00,49.6,17.9,31.81,West,267,5.0,6.0,28,0.00,NA,NA,-99.99,wxupload 3.4,2013-03-19 16:40:00,
2013-03-19 12:45:00,49.8,18.9,31.81,North,353,0.0,8.0,29,0.00,NA,NA,-99.99,wxupload 3.4,2013-03-19 16:45:00,
2013-03-19 12:51:00,50.5,18.7,31.81,WNW,282,4.0,7.0,28,0.00,NA,NA,-99.99,wxupload 3.4,2013-03-19 16:51:00,
2013-03-19 12:58:00,51.1,19.2,31.81,WNW,289,0.0,0.0,28,0.00,NA,NA,-99.99,wxupload 3.4,2013-03-19 16:58:00,
2013-03-19 13:04:00,51.6,18.8,31.78,NNW,339,4.0,7.0,27,0.00,NA,NA,-99.99,wxupload 3.4,2013-03-19 17:04:00,
2013-03-19 13:09:00,52.2,19.2,31.78,NW,317,2.0,3.0,27,0.00,NA,NA,-99.99,wxupload 3.4,2013-03-19 17:09:00,
2013-03-19 13:15:00,52.7,19.7,31.78,WSW,257,4.0,5.0,27,0.00,NA,NA,-99.99,wxupload 3.4,2013-03-19 17:15:00,
2013-03-19 13:21:00,53.4,20.3,31.78,NE,35,0.0,4.0,27,0.00,NA,NA,-99.99,wxupload 3.4,2013-03-19 17:21:00,
2013-03-19 13:28:00,54.1,19.2,31.78,NE,39,3.0,4.0,25,0.00,NA,NA,-99.99,wxupload 3.4,2013-03-19 17:28:00,
2013-03-19 13:33:00,54.7,20.6,31.78,WSW,246,3.0,12.0,26,0.00,NA,NA,-99.99,wxupload 3.4,2013-03-19 17:33:00,
2013-03-19 13:39:00,55.0,19.9,31.78,WNW,297,0.0,4.0,25,0.00,NA,NA,-99.99,wxupload 3.4,2013-03-19 17:39:00,
2013-03-19 13:45:00,55.6,20.4,31.78,NW,324,4.0,5.0,25,0.00,NA,NA,-99.99,wxupload 3.4,2013-03-19 17:45:00,
2013-03-19 13:51:00,55.9,17.7,31.78,WNW,282,4.0,6.0,22,0.00,NA,NA,-99.99,wxupload 3.4,2013-03-19 17:51:00,
2013-03-19 13:57:00,56.3,18.0,31.78,WSW,238,3.0,6.0,22,0.00,NA,NA,-99.99,wxupload 3.4,2013-03-19 17:57:00,
2013-03-19 14:03:00,56.5,18.2,31.78,NW,311,4.0,7.0,22,0.00,NA,NA,-99.99,wxupload 3.4,2013-03-19 18:03:00,
2013-03-19 14:09:00,56.8,18.5,31.78,NE,45,4.0,6.0,22,0.00,NA,NA,-99.99,wxupload 3.4,2013-03-19 18:09:00,
2013-03-19 14:15:00,56.8,18.5,31.78,SW,227,0.0,4.0,22,0.00,NA,NA,-99.99,wxupload 3.4,2013-03-19 18:15:00,
2013-03-19 14:21:00,56.8,16.3,31.78,NNW,328,3.0,4.0,20,0.00,NA,NA,-99.99,wxupload 3.4,2013-03-19 18:21:00,
2013-03-19 14:27:00,57.2,15.4,31.78,NNW,337,0.0,0.0,19,0.00,NA,NA,-99.99,wxupload 3.4,2013-03-19 18:27:00,
2013-03-19 14:33:00,57.6,15.7,31.78,North,357,4.0,6.0,19,0.00,NA,NA,-99.99,wxupload 3.4,2013-03-19 18:33:00,
2013-03-19 14:39:00,57.4,15.5,31.78,NW,313,0.0,4.0,19,0.00,NA,NA,-99.99,wxupload 3.4,2013-03-19 18:39:00,
2013-03-19 14:45:00,57.9,16.0,31.78,SSW,210,3.0,6.0,19,0.00,NA,NA,-99.99,wxupload 3.4,2013-03-19 18:45:00,
2013-03-19 14:51:00,57.9,16.0,31.78,WNW,303,3.0,6.0,19,0.00,NA,NA,-99.99,wxupload 3.4,2013-03-19 18:51:00,
2013-03-19 14:57:00,57.6,15.7,31.78,NW,325,5.0,6.0,19,0.00,NA,NA,-99.99,wxupload 3.4,2013-03-19 18:57:00,
2013-03-19 15:03:00,57.7,15.8,31.78,NNE,29,5.0,8.0,19,0.00,NA,NA,-99.99,wxupload 3.4,2013-03-19 19:03:00,
2013-03-19 15:09:00,57.4,15.5,31.78,NNW,334,5.0,6.0,19,0.00,NA,NA,-99.99,wxupload 3.4,2013-03-19 19:09:00,
2013-03-19 15:15:00,57.2,15.4,31.78,NNE,33,7.0,9.0,19,0.00,NA,NA,-99.99,wxupload 3.4,2013-03-19 19:15:00,
2013-03-19 15:21:00,57.4,15.5,31.78,WSW,250,0.0,8.0,19,0.00,NA,NA,-99.99,wxupload 3.4,2013-03-19 19:21:00,
2013-03-19 15:27:00,57.2,15.4,31.78,WNW,295,2.0,6.0,19,0.00,NA,NA,-99.99,wxupload 3.4,2013-03-19 19:27:00,
2013-03-19 15:33:00,57.0,16.4,31.78,East,100,4.0,6.0,20,0.00,NA,NA,-99.99,wxupload 3.4,2013-03-19 19:33:00,
2013-03-19 15:39:00,56.3,15.8,31.78,NW,316,4.0,7.0,20,0.00,NA,NA,-99.99,wxupload 3.4,2013-03-19 19:39:00,
2013-03-19 15:45:00,56.1,15.7,31.78,North,0,4.0,10.0,20,0.00,NA,NA,-99.99,wxupload 3.4,2013-03-19 19:45:00,
2013-03-19 15:51:00,55.9,15.5,31.78,West,265,3.0,4.0,20,0.00,NA,NA,-99.99,wxupload 3.4,2013-03-19 19:51:00,
2013-03-19 15:57:00,56.5,16.0,31.78,WSW,248,7.0,8.0,20,0.00,NA,NA,-99.99,wxupload 3.4,2013-03-19 19:57:00,
2013-03-19 16:03:00,56.3,15.8,31.81,West,272,3.0,5.0,20,0.00,NA,NA,-99.99,wxupload 3.4,2013-03-19 20:03:00,
2013-03-19 16:09:00,56.5,16.0,31.81,WNW,289,6.0,8.0,20,0.00,NA,NA,-99.99,wxupload 3.4,2013-03-19 20:09:00,
2013-03-19 16:15:00,55.9,11.8,31.81,West,259,5.0,8.0,17,0.00,NA,NA,-99.99,wxupload 3.4,2013-03-19 20:15:00,
2013-03-19 16:21:00,55.9,11.8,31.81,West,265,4.0,6.0,17,0.00,NA,NA,-99.99,wxupload 3.4,2013-03-19 20:21:00,
2013-03-19 16:27:00,55.9,11.8,31.81,NNW,343,4.0,6.0,17,0.00,NA,NA,-99.99,wxupload 3.4,2013-03-19 20:27:00,
2013-03-19 16:33:00,56.3,12.1,31.81,NNW,337,4.0,5.0,17,0.00,NA,NA,-99.99,wxupload 3.4,2013-03-19 20:33:00,
2013-03-19 16:39:00,56.7,12.4,31.81,WNW,285,2.0,8.0,17,0.00,NA,NA,-99.99,wxupload 3.4,2013-03-19 20:39:00,
2013-03-19 16:45:00,56.7,12.4,31.81,NNW,345,5.0,6.0,17,0.00,NA,NA,-99.99,wxupload 3.4,2013-03-19 20:45:00,
2013-03-19 16:51:00,56.8,12.5,31.81,SSW,209,5.0,6.0,17,0.00,NA,NA,-99.99,wxupload 3.4,2013-03-19 20:51:00,
2013-03-19 16:57:00,57.0,12.7,31.81,West,273,5.0,6.0,17,0.00,NA,NA,-99.99,wxupload 3.4,2013-03-19 20:57:00,
2013-03-19 17:03:00,56.7,12.4,31.81,West,277,4.0,6.0,17,0.00,NA,NA,-99.99,wxupload 3.4,2013-03-19 21:03:00,
2013-03-19 17:09:00,56.3,12.1,31.81,NNE,17,5.0,9.0,17,0.00,NA,NA,-99.99,wxupload 3.4,2013-03-19 21:09:00,
2013-03-19 17:15:00,55.8,11.6,31.81,NW,317,3.0,3.0,17,0.00,NA,NA,-99.99,wxupload 3.4,2013-03-19 21:15:00,
2013-03-19 17:23:00,54.3,11.7,31.84,West,267,6.0,8.0,18,0.00,NA,NA,-99.99,wxupload 3.4,2013-03-19 21:23:00,
2013-03-19 17:29:00,53.1,10.6,31.84,SW,229,5.0,8.0,18,0.00,NA,NA,-99.99,wxupload 3.4,2013-03-19 21:29:00,
2013-03-19 17:35:00,52.5,10.2,31.84,WNW,292,0.0,2.0,18,0.00,NA,NA,-99.99,wxupload 3.4,2013-03-19 21:35:00,
2013-03-19 17:41:00,52.3,10.0,31.84,WNW,297,6.0,8.0,18,0.00,NA,NA,-99.99,wxupload 3.4,2013-03-19 21:41:00,
2013-03-19 17:47:00,52.2,9.9,31.84,West,272,5.0,10.0,18,0.00,NA,NA,-99.99,wxupload 3.4,2013-03-19 21:47:00,
2013-03-19 17:53:00,51.6,10.7,31.84,NW,307,6.0,8.0,19,0.00,NA,NA,-99.99,wxupload 3.4,2013-03-19 21:53:00,
2013-03-19 17:59:00,51.3,10.4,31.84,WNW,290,7.0,11.0,19,0.00,NA,NA,-99.99,wxupload 3.4,2013-03-19 21:59:00,
2013-03-19 18:05:00,50.9,10.1,31.84,West,264,5.0,13.0,19,0.00,NA,NA,-99.99,wxupload 3.4,2013-03-19 22:05:00,
2013-03-19 18:11:00,50.2,9.4,31.84,West,269,6.0,8.0,19,0.00,NA,NA,-99.99,wxupload 3.4,2013-03-19 22:11:00,
2013-03-19 18:17:00,49.8,9.1,31.87,WSW,249,4.0,5.0,19,0.00,NA,NA,-99.99,wxupload 3.4,2013-03-19 22:17:00,
2013-03-19 18:23:00,49.3,8.7,31.87,West,277,0.0,3.0,19,0.00,NA,NA,-99.99,wxupload 3.4,2013-03-19 22:23:00,
2013-03-19 18:28:00,48.7,8.2,31.87,SW,234,4.0,5.0,19,0.00,NA,NA,-99.99,wxupload 3.4,2013-03-19 22:28:00,
2013-03-19 18:35:00,48.2,7.8,31.87,SSW,213,4.0,6.0,19,0.00,NA,NA,-99.99,wxupload 3.4,2013-03-19 22:35:00,
2013-03-19 18:41:00,47.7,7.3,31.87,NW,315,4.0,4.0,19,0.00,NA,NA,-99.99,wxupload 3.4,2013-03-19 22:41:00,
2013-03-19 18:47:00,47.1,6.8,31.87,NNW,341,4.0,6.0,19,0.00,NA,NA,-99.99,wxupload 3.4,2013-03-19 22:47:00,
2013-03-19 18:52:00,46.9,6.7,31.87,West,281,4.0,4.0,19,0.00,NA,NA,-99.99,wxupload 3.4,2013-03-19 22:52:00,
2013-03-19 18:58:00,46.4,6.2,31.87,WNW,289,2.0,4.0,19,0.00,NA,NA,-99.99,wxupload 3.4,2013-03-19 22:58:00,
2013-03-19 19:05:00,46.2,7.2,31.87,West,279,4.0,5.0,20,0.00,NA,NA,-99.99,wxupload 3.4,2013-03-19 23:05:00,
2013-03-19 19:11:00,45.5,6.6,31.87,WSW,242,5.0,8.0,20,0.00,NA,NA,-99.99,wxupload 3.4,2013-03-19 23:11:00,
2013-03-19 19:17:00,45.5,6.6,31.87,South,191,0.0,4.0,20,0.00,NA,NA,-99.99,wxupload 3.4,2013-03-19 23:17:00,
2013-03-19 19:22:00,45.1,6.3,31.90,WNW,284,3.0,8.0,20,0.00,NA,NA,-99.99,wxupload 3.4,2013-03-19 23:22:00,
2013-03-19 19:29:00,44.6,5.9,31.90,NW,311,0.0,4.0,20,0.00,NA,NA,-99.99,wxupload 3.4,2013-03-19 23:29:00,
2013-03-19 19:35:00,44.1,5.4,31.90,SSW,210,3.0,5.0,20,0.00,NA,NA,-99.99,wxupload 3.4,2013-03-19 23:35:00,
2013-03-19 19:42:00,43.7,5.1,31.90,South,186,2.0,5.0,20,0.00,NA,NA,-99.99,wxupload 3.4,2013-03-19 23:42:00,
2013-03-19 19:48:00,43.0,4.5,31.90,WSW,241,4.0,5.0,20,0.00,NA,NA,-99.99,wxupload 3.4,2013-03-19 23:48:00,
2013-03-19 19:54:00,42.8,4.3,31.90,West,272,0.0,3.0,20,0.00,NA,NA,-99.99,wxupload 3.4,2013-03-19 23:54:00,
2013-03-19 20:01:00,42.4,5.1,31.90,WSW,237,0.0,5.0,21,0.00,NA,NA,-99.99,wxupload 3.4,2013-03-20 00:01:00,
2013-03-19 20:08:00,42.1,4.8,31.90,West,278,0.0,0.0,21,0.00,NA,NA,-99.99,wxupload 3.4,2013-03-20 00:08:00,
2013-03-19 20:14:00,41.5,4.3,31.90,NNE,25,0.0,0.0,21,0.00,NA,NA,-99.99,wxupload 3.4,2013-03-20 00:14:00,
2013-03-19 20:20:00,41.2,4.0,31.90,SW,222,0.0,0.0,21,0.00,NA,NA,-99.99,wxupload 3.4,2013-03-20 00:20:00,
2013-03-19 20:26:00,41.0,3.9,31.90,WNW,287,2.0,5.0,21,0.00,NA,NA,-99.99,wxupload 3.4,2013-03-20 00:26:00,
2013-03-19 20:32:00,41.4,4.2,31.92,NE,46,0.0,3.0,21,0.00,NA,NA,-99.99,wxupload 3.4,2013-03-20 00:32:00,
2013-03-19 20:39:00,41.2,4.0,31.92,NE,39,0.0,3.0,21,0.00,NA,NA,-99.99,wxupload 3.4,2013-03-20 00:39:00,
2013-03-19 20:44:00,40.8,3.7,31.92,NE,36,4.0,4.0,21,0.00,NA,NA,-99.99,wxupload 3.4,2013-03-20 00:44:00,
2013-03-19 20:50:00,40.5,3.4,31.90,NW,310,0.0,0.0,21,0.00,NA,NA,-99.99,wxupload 3.4,2013-03-20 00:50:00,
2013-03-19 20:56:00,39.9,2.9,31.90,West,265,0.0,0.0,21,0.00,NA,NA,-99.99,wxupload 3.4,2013-03-20 00:56:00,
2013-03-19 21:03:00,40.3,3.2,31.92,SE,141,0.0,5.0,21,0.00,NA,NA,-99.99,wxupload 3.4,2013-03-20 01:03:00,
2013-03-19 21:08:00,40.5,3.4,31.92,WSW,258,0.0,3.0,21,0.00,NA,NA,-99.99,wxupload 3.4,2013-03-20 01:08:00,
2013-03-19 21:14:00,40.5,3.4,31.92,WSW,249,0.0,0.0,21,0.00,NA,NA,-99.99,wxupload 3.4,2013-03-20 01:14:00,
2013-03-19 21:20:00,40.1,3.1,31.92,WNW,283,0.0,0.0,21,0.00,NA,NA,-99.99,wxupload 3.4,2013-03-20 01:20:00,
2013-03-19 21:26:00,39.4,2.5,31.92,West,275,0.0,6.0,21,0.00,NA,NA,-99.99,wxupload 3.4,2013-03-20 01:26:00,
2013-03-19 21:32:00,39.4,2.5,31.92,NNW,337,0.0,0.0,21,0.00,NA,NA,-99.99,wxupload 3.4,2013-03-20 01:32:00,
2013-03-19 21:38:00,39.2,2.3,31.92,NNE,22,0.0,0.0,21,0.00,NA,NA,-99.99,wxupload 3.4,2013-03-20 01:38:00,
2013-03-19 21:44:00,39.2,2.3,31.92,WSW,253,0.0,6.0,21,0.00,NA,NA,-99.99,wxupload 3.4,2013-03-20 01:44:00,
2013-03-19 21:50:00,38.8,2.0,31.92,NNW,345,0.0,0.0,21,0.00,NA,NA,-99.99,wxupload 3.4,2013-03-20 01:50:00,
2013-03-19 21:56:00,38.8,2.0,31.92,SW,218,0.0,0.0,21,0.00,NA,NA,-99.99,wxupload 3.4,2013-03-20 01:56:00,
2013-03-19 22:02:00,39.0,2.2,31.95,WNW,290,0.0,0.0,21,0.00,NA,NA,-99.99,wxupload 3.4,2013-03-20 02:02:00,
2013-03-19 22:08:00,38.8,2.0,31.95,NE,45,3.0,5.0,21,0.00,NA,NA,-99.99,wxupload 3.4,2013-03-20 02:08:00,
2013-03-19 22:14:00,38.8,2.0,31.95,NW,316,0.0,0.0,21,0.00,NA,NA,-99.99,wxupload 3.4,2013-03-20 02:14:00,
2013-03-19 22:20:00,39.4,2.5,31.95,WSW,243,6.0,8.0,21,0.00,NA,NA,-99.99,wxupload 3.4,2013-03-20 02:20:00,
2013-03-19 22:26:00,39.4,2.5,31.95,South,183,0.0,0.0,21,0.00,NA,NA,-99.99,wxupload 3.4,2013-03-20 02:26:00,
2013-03-19 22:32:00,39.2,2.3,31.95,West,271,4.0,5.0,21,0.00,NA,NA,-99.99,wxupload 3.4,2013-03-20 02:32:00,
2013-03-19 22:38:00,39.2,2.3,31.95,ENE,63,0.0,0.0,21,0.00,NA,NA,-99.99,wxupload 3.4,2013-03-20 02:38:00,
2013-03-19 22:44:00,38.7,1.8,31.95,NW,318,0.0,0.0,21,0.00,NA,NA,-99.99,wxupload 3.4,2013-03-20 02:44:00,
2013-03-19 22:50:00,38.7,1.8,31.95,NW,316,6.0,9.0,21,0.00,NA,NA,-99.99,wxupload 3.4,2013-03-20 02:50:00,
2013-03-19 22:56:00,38.7,1.8,31.95,WSW,238,2.0,0.0,21,0.00,NA,NA,-99.99,wxupload 3.4,2013-03-20 02:56:00,
2013-03-19 23:02:00,38.5,1.7,31.95,WNW,295,6.0,8.0,21,0.00,NA,NA,-99.99,wxupload 3.4,2013-03-20 03:02:00,
2013-03-19 23:08:00,38.5,1.7,31.95,ENE,74,2.0,8.0,21,0.00,NA,NA,-99.99,wxupload 3.4,2013-03-20 03:08:00,
2013-03-19 23:14:00,38.1,1.4,31.95,North,0,3.0,4.0,21,0.00,NA,NA,-99.99,wxupload 3.4,2013-03-20 03:14:00,
2013-03-19 23:20:00,38.3,1.5,31.98,NNE,17,0.0,4.0,21,0.00,NA,NA,-99.99,wxupload 3.4,2013-03-20 03:20:00,
2013-03-19 23:26:00,38.3,1.5,31.98,North,0,7.0,9.0,21,0.00,NA,NA,-99.99,wxupload 3.4,2013-03-20 03:26:00,
2013-03-19 23:32:00,37.8,1.1,31.98,WNW,284,3.0,6.0,21,0.00,NA,NA,-99.99,wxupload 3.4,2013-03-20 03:32:00,
2013-03-19 23:38:00,37.9,1.2,31.98,NW,324,0.0,0.0,21,0.00,NA,NA,-99.99,wxupload 3.4,2013-03-20 03:38:00,
2013-03-19 23:44:00,37.6,0.9,31.98,NW,318,0.0,0.0,21,0.00,NA,NA,-99.99,wxupload 3.4,2013-03-20 03:44:00,
2013-03-19 23:50:00,37.0,1.5,31.98,NW,312,4.0,8.0,22,0.00,NA,NA,-99.99,wxupload 3.4,2013-03-20 03:50:00,
2013-03-19 23:58:00,37.0,1.5,31.98,SW,235,0.0,0.0,22,0.00,NA,NA,-99.99,wxupload 3.4,2013-03-20 03:58:00,